Regional Weather Roundup
Issued by NWS

Home | Current Version | Previous Version | Text Only | Print | Product List | Glossary Off
Versions: 1 2 3 4 5 6 7 8 9 10 11 12 13 14 15 16 17 18 19 20 21 22 23 24 25 26 27 28 29 30 31 32 33 34 35 36 37 38 39 40 41 42 43 44 45 46 47 48 49 50

000
ASUS43 KFSD 300702
RWRSD

WEATHER ROUNDUP FOR SOUTH DAKOTA
NATIONAL WEATHER SERVICE SIOUX FALLS SD
200 AM CDT SAT APR 30 2016

NOTE: "FAIR" INDICATES FEW OR NO CLOUDS BELOW 12,000 FEET WITH NO
SIGNIFICANT WEATHER AND/OR OBSTRUCTIONS TO VISIBILITY.


SDZ001>005-009-010-012>017-300800-
NORTHWEST AND NORTH CENTRAL SOUTH DAKOTA

CITY           SKY/WX    TMP DP  RH WIND       PRES   REMARKS
BUFFALO          N/A     40  33  76 NE7       30.01S
FAITH            N/A     41  36  82 E3        30.07R
MOBRIDGE       PTCLDY    39  36  89 N8        30.06S
$$

SDZ012>016-024>037-041>051-057-063-072>074-300800-
SOUTHWEST AND SOUTH CENTRAL SOUTH DAKOTA

CITY           SKY/WX    TMP DP  RH WIND       PRES   REMARKS
RAPID CTY ARPT CLOUDY    40  37  89 N6        30.04S
PIERRE         CLOUDY    42  38  85 NE9       30.02F
CUSTER         FOG       32  30  92 NE15G22   29.97F VSB 3/4 WCI  22
PHILIP         CLOUDY    41  37  86 NE8       30.03F
PINE RIDGE     LGT RAIN  37  34  89 NE12      29.97F
WINNER         CLOUDY    43  39  86 NE8       29.99F
$$

SDZ004>011-016>023-039-040-300800-
NORTHEAST SOUTH DAKOTA

CITY           SKY/WX    TMP DP  RH WIND       PRES   REMARKS
ABERDEEN       PTCLDY    40  37  89 N5        30.09F
WATERTOWN      PTCLDY    36  33  89 N5        30.08S
BROOKINGS      PTCLDY    38  35  89 NE3       30.06F
SISSETON         N/A     37  35  92 N5        30.10S
$$

SDZ017-020-022-023-036>040-048>070-300800-
SOUTHEAST SOUTH DAKOTA

CITY           SKY/WX    TMP DP  RH WIND       PRES   REMARKS
SIOUX FALLS    CLOUDY    42  39  89 NE10      30.02F
HURON          MOCLDY    42  39  89 NE9       30.04F
MITCHELL       CLOUDY    45  41  86 E10       30.02F
YANKTON        CLOUDY    45  37  76 NE16      29.97F
$$

ABBREVIATIONS USED IN REMARKS
   TC - TEMPERATURE IN CELSIUS
  WCI - WIND CHILL INDEX
   HX - HEAT INDEX
  VSB - VISIBILITY




USA.gov is the U.S. government's official web portal to all federal, state and local government web resources and services.